Location: Unspecified
(0.0000°N, 0.0000°E)
Time: 16:27:42
(UTC+00:00)

Envisat - Pass Details

Date: 25 January 2020
Orbit: 764 x 766 km, 98.1° (Epoch: 24 February)

Event Time Altitude Azimuth Distance (km) Brightness Sun altitude
Rises 18:54:51 0° 188° (S) 3,231 6.6 -10.1°
Reaches altitude 10° 18:57:24 10° 198° (SSW) 2,303 6.0 -10.7°
Maximum altitude 19:01:46 29° 258° (WSW) 1,362 5.2 -11.7°
Drops below altitude 10° 19:06:08 10° 318° (NW) 2,295 5.8 -12.7°
Sets 19:08:42 0° 328° (NNW) 3,218 6.4 -13.3°
